Home > Weather > Saint-Pierre > Past weeks

Flag for Saint Pierre and Miquelon Past Weather in Saint-Pierre, Saint Pierre and Miquelon — Yesterday and Last 2 Weeks

Now
61 °F

Clear.


Feels Like: 61 °F
Forecast: 62 / 66 °F
Wind: 10 mph from Northwest

Location: Saint-Pierre

Current Time: Jul 31, 2016 at 8:00:03 AM

Latest Report: Jul 31, 2016 at 7:00 AM


Visibility: 10 mi

Pressure: 29.92 "Hg

Humidity: 88%

Dew Point: 57 °F

Location of Saint-PierreLocation

Past Weather in Saint-Pierre — Graph

°F

Saint-Pierre Temperature Yesterday

Maximum temperature yesterday: 72 °F (at 2:00 PM)
Minimum temperature yesterday: 61 °F (at 11:00 PM)
Average temperature yesterday: 66 °F

High & Low Weather Summary for the Past Weeks

 TemperatureHumidityPressure
High72 °F (Jul 28, 3:00 PM)100% (Jul 16, 8:00 AM)30.15 "Hg (Jul 16, 8:00 AM)
Low54 °F (Jul 17, 6:00 AM)64% (Jul 20, 3:00 PM)29.77 "Hg (Jul 23, 6:00 PM)
Average61 °F93%29.91 "Hg
* Reported Jul 16 7:00 AM — Jul 31 7:00 AM, Saint-Pierre, Weather by CustomWeather, © 2016

Note: Actual official high and low records may vary slightly from our data, if they occured in-between our weather recording intervals... More about our weather records

Advertising

Saint-Pierre Weather History for the Previous 24 Hours

Scroll right to see more
 ConditionsComfort  
Time TempWeatherWind HumidityBarometerVisibility
7:00 AM
Sun, Jul 31
61 °FClear.10 mph88%29.92 "Hg10 mi
6:00 AM61 °FClear.15 mph88%29.89 "Hg10 mi
11:00 PM
Sat, Jul 30
61 °FPassing clouds.12 mph94%29.83 "HgN/A
10:00 PM63 °FPassing clouds.10 mph88%29.83 "HgN/A
9:00 PM64 °FScattered clouds.3 mph94%29.83 "HgN/A
8:00 PM66 °FFog.6 mph88%29.83 "Hg1 mi
7:00 PM70 °FFog.13 mph83%29.80 "Hg2 mi
6:00 PM70 °FFog.6 mph83%29.80 "Hg2 mi
5:00 PM70 °FFog.6 mph83%29.80 "Hg2 mi
4:00 PM72 °FFog.6 mph88%29.80 "Hg1 mi
3:00 PM70 °FFog.5 mph88%29.80 "Hg2 mi
2:00 PM72 °FFog.9 mph94%29.80 "Hg2 mi
1:00 PM68 °FFog.12 mph100%29.80 "Hg1 mi
12:00 PM64 °FFog.8 mph100%29.83 "Hg1 mi
11:00 AM63 °FFog.6 mph100%29.83 "Hg1 mi
10:00 AM64 °FFog.2 mph100%29.83 "Hg0 mi
9:00 AM63 °FFog.2 mph100%29.83 "Hg0 mi
8:00 AM63 °FFog.3 mph100%29.86 "Hg0 mi
Weather by CustomWeather, © 2016

See weather overviewHow to use our weather pages